Regional Weather Roundup
Issued by NWS

Home | Current Version | Previous Version | Text Only | Print | Product List | Glossary Off
Versions: 1 2 3 4 5 6 7 8 9 10 11 12 13 14 15 16 17 18 19 20 21 22 23 24 25 26 27

000
ASUS45 KBOU 221507
RWRCO

WEATHER ROUNDUP FOR COLORADO
NATIONAL WEATHER SERVICE DENVER/BOULDER CO
900 AM MDT TUE AUG 22 2017

NOTE: "FAIR" INDICATES FEW OR NO CLOUDS BELOW 12000 FEET WITH NO
SIGNIFICANT WEATHER AND/OR OBSTRUCTIONS TO VISIBILITY.

COZ001>005-013-030-031-221600-
...NORTHWEST COLORADO...

CITY           SKY/WX    TMP DP  RH WIND       PRES   REMARKS
CRAIG          FAIR      60  40  47 CALM      30.37S
HAYDEN         FAIR      63  39  41 E8        30.40S
MEEKER         FAIR      63  40  42 CALM      30.38S
RABBIT EARS PA FAIR      55  34  44 CALM      30.66R
STEAMBOAT SPGS FAIR      57  40  52 CALM      30.42S
WALDEN         FAIR      55  41  58 SE3       30.50S
$$

COZ006>008-011-221600-
...WEST CENTRAL VALLEYS...

CITY           SKY/WX    TMP DP  RH WIND       PRES   REMARKS
GRAND JUNCTION FAIR      75  44  33 E12       30.27R
MONTROSE       FAIR      63  47  55 S6        30.36S
EAGLE          FAIR      58  40  51 NW5       30.45F
RIFLE          FAIR      65  44  46 CALM      30.34R
DELTA          FAIR      68  45  42 S6        30.33S
NUCLA          FAIR      68  39  34 E7        30.40R
$$

COZ017>023-064>068-221600-
...SOUTHWEST COLORADO...

CITY           SKY/WX    TMP DP  RH WIND       PRES   REMARKS
DURANGO        FAIR      62  46  55 E3        30.42R
CORTEZ         CLOUDY    60  53  77 E3        30.36R
PAGOSA SPRINGS CLOUDY    59  44  56 CALM      30.48R
TELLURIDE      FAIR      56  40  54 CALM      30.57S
WOLF CREEK PAS CLOUDY    43  37  81 CALM      30.80R
$$

COZ009-010-012-014-032>034-037-058>063-221600-
...CENTRAL COLORADO...

CITY           SKY/WX    TMP DP  RH WIND       PRES   REMARKS
ASPEN          FAIR      60  39  45 CALM      30.47S
BUENA VISTA    PTSUNNY   53  43  68 CALM      30.52S
COPPER MTN     FAIR      55  32  41 CALM      30.77R
BERTHOUD PASS  FAIR      46  41  81 W9        30.79S
COTTONWOOD PAS PTSUNNY   59  39  47 E5        30.62S
GUNNISON       FAIR      53  44  71 W5        30.52R
KREMMLING      FAIR      59  43  55 CALM      30.50F
LEADVILLE      FAIR      52  37  56 N3        30.62R
SALIDA         FAIR      55  46  72 CALM      30.58S
SUNLIGHT       FAIR      54  32  43 CALM      30.70S
WILKERSON PASS FAIR      54  32  43 SW5       30.74S
$$

COZ069>075-221600-
...SAN LUIS VALLEY/SANGRE DE CRISTO MOUNTAINS...

CITY           SKY/WX    TMP DP  RH WIND       PRES   REMARKS
ALAMOSA        CLOUDY    57  47  69 NW3       30.47S
DEL NORTE      CLOUDY    56  46  69 W10       30.51R
LA VETA PASS   NOT AVBL
SAGUACHE         N/A    N/A N/A N/A MISG        N/A
$$

COZ035-036-038>040-221600-
...NORTHERN COLORADO FRONT RANGE...

CITY           SKY/WX    TMP DP  RH WIND       PRES   REMARKS
DENVER INTL AP PTSUNNY   67  52  58 S7        30.34R
DMNS CITY PARK   N/A     67  50  52 E7        30.34R
AURORA         MOSUNNY   65  51  60 CALM      30.36R
FRONT RANGE AP PTSUNNY   68  59  73 SE13G21   30.36S
ERIE MUNI ARPT FAIR      65  56  72 N3        30.38S
BOULDER MUN AP FAIR      64  54  68 N6        30.34S
CENTENNIAL     PTSUNNY   66  46  48 CALM      30.36S
BROOMFIELD     MOSUNNY   64  54  68 N6        30.36R
FORT COLLINS   CLOUDY    63  57  81 SE10      30.35R
LONGMONT       CLOUDY    69  57  66 CALM      30.35S HAZE
$$

COZ041-046-047-076>085-087-088-221600-
...PIKES PEAK/PALMER DIVIDE AND SOUTHERN FOOTHILLS...

CITY           SKY/WX    TMP DP  RH WIND       PRES   REMARKS
COLO. SPRINGS  PTSUNNY   63  57  81 SE8       30.42S
A. F. ACADEMY  PTSUNNY   62  50  65 S8        30.42R
SCHRIEVER AFB  PTSUNNY   57  57 100 SE7       30.43R FOG
CHEYENNE MTN   PTSUNNY   59  56  90 SE10      30.39R
ELLICOTT       CLOUDY   N/A N/A N/A SE6       30.41R
FALCON         CLOUDY    60  57  92 S6G16     30.46R
FORT CARSON    CLOUDY    64  57  77 S8        30.40R
LIMON          PTSUNNY   60  55  83 S5        30.39R
MONUMENT HILL  FAIR      61  54  77 S14       30.45R
CANON CITY     NOT AVBL
WALSENBURG     PTSUNNY   66  59  77 CALM      30.41S
TRINIDAD       FAIR      65  54  67 NW5       30.39R
$$

COZ042>045-048>051-090-091-221600-
...NORTHEAST COLORADO...

CITY           SKY/WX    TMP DP  RH WIND       PRES   REMARKS
GREELEY ARPT   CLOUDY    64  59  83 SE13      30.34S
AKRON          FAIR      63  54  72 SE12      30.35S
BURLINGTON     PTSUNNY   66  59  78 E12       30.34R
WRAY           NOT AVBL
YUMA           PTSUNNY   61  46  59 E6        30.34R
STERLING       PTSUNNY   63  55  77 SE5       30.33R
HOLYOKE        FAIR      64  50  59 E7        30.33S
FORT MORGAN    PTSUNNY   64  55  70 E7        30.35R
$$

COZ086-089-092>099-221600-
...SOUTHEAST COLORADO...

CITY           SKY/WX    TMP DP  RH WIND       PRES   REMARKS
PUEBLO         CLOUDY    67  60  78 E7        30.34R
LA JUNTA       CLOUDY    68  60  75 E9        30.32R
LAMAR          CLOUDY    70  59  68 NE9       30.29R
SPRINGFIELD      N/A     66  63  90 N17       30.30R
$$




USA.gov is the U.S. government's official web portal to all federal, state and local government web resources and services.